Time,TemperatureF,DewpointF,PressureIn,WindDirection,WindDirectionDegrees,WindSpeedMPH,WindSpeedGustMPH,Humidity,HourlyPrecipIn,Conditions,Clouds,dailyrainin,SoftwareType,DateUTC
2013-06-05 00:02:00,64.0,51.0,30.01,ESE,113,1.0,4.0,63,0.00,,,0.00,,2013-06-05 05:02:00,
2013-06-05 00:12:00,64.0,51.0,30.01,ESE,113,1.0,4.0,63,0.00,,,0.00,,2013-06-05 05:12:00,
2013-06-05 00:22:00,64.0,51.0,30.01,East,88,6.0,7.0,62,0.00,,,0.00,,2013-06-05 05:22:00,
2013-06-05 00:32:00,63.0,50.0,30.02,East,84,1.0,4.0,63,0.00,,,0.00,,2013-06-05 05:32:00,
2013-06-05 00:42:00,63.0,50.0,30.02,East,84,1.0,4.0,63,0.00,,,0.00,,2013-06-05 05:42:00,
2013-06-05 00:52:00,63.0,50.0,30.02,East,80,3.0,7.0,62,0.00,,,0.00,,2013-06-05 05:52:00,
2013-06-05 01:02:00,62.0,49.0,30.01,East,81,2.0,6.0,62,0.00,,,0.00,,2013-06-05 06:02:00,
2013-06-05 01:12:00,62.0,49.0,30.01,East,81,2.0,6.0,62,0.00,,,0.00,,2013-06-05 06:12:00,
2013-06-05 01:22:00,62.0,49.0,30.01,East,81,2.0,6.0,62,0.00,,,0.00,,2013-06-05 06:22:00,
2013-06-05 01:32:00,62.0,49.0,30.00,ESE,107,4.0,6.0,62,0.00,,,0.00,,2013-06-05 06:32:00,
2013-06-05 01:42:00,62.0,49.0,30.00,ESE,107,4.0,6.0,62,0.00,,,0.00,,2013-06-05 06:42:00,
2013-06-05 01:52:00,62.0,49.0,30.00,ESE,107,4.0,6.0,62,0.00,,,0.00,,2013-06-05 06:52:00,
2013-06-05 02:02:00,60.0,48.0,29.98,East,84,8.0,8.0,64,0.00,,,0.00,,2013-06-05 07:02:00,
2013-06-05 02:12:00,60.0,48.0,29.98,East,84,8.0,8.0,64,0.00,,,0.00,,2013-06-05 07:12:00,
2013-06-05 02:22:00,60.0,49.0,29.98,SE,141,0.0,8.0,66,0.00,,,0.00,,2013-06-05 07:22:00,
2013-06-05 02:32:00,59.0,48.0,29.98,East,98,0.0,7.0,66,0.00,,,0.00,,2013-06-05 07:32:00,
2013-06-05 02:42:00,59.0,48.0,29.98,East,98,0.0,7.0,66,0.00,,,0.00,,2013-06-05 07:42:00,
2013-06-05 02:52:00,59.0,48.0,29.98,East,85,2.0,6.0,67,0.00,,,0.00,,2013-06-05 07:52:00,
2013-06-05 03:02:00,59.0,48.0,29.98,East,92,0.0,7.0,67,0.00,,,0.00,,2013-06-05 08:02:00,
2013-06-05 03:12:00,59.0,48.0,29.98,East,92,0.0,7.0,67,0.00,,,0.00,,2013-06-05 08:12:00,
2013-06-05 03:22:00,59.0,48.0,29.98,East,86,3.0,5.0,68,0.00,,,0.00,,2013-06-05 08:22:00,
2013-06-05 03:32:00,59.0,48.0,29.98,East,86,0.0,5.0,68,0.00,,,0.00,,2013-06-05 08:32:00,
2013-06-05 03:42:00,59.0,48.0,29.98,East,86,0.0,5.0,68,0.00,,,0.00,,2013-06-05 08:42:00,
2013-06-05 03:52:00,59.0,49.0,29.98,ESE,113,0.0,4.0,70,0.00,,,0.00,,2013-06-05 08:52:00,
2013-06-05 04:02:00,59.0,49.0,29.98,East,94,0.0,2.0,70,0.00,,,0.00,,2013-06-05 09:02:00,
2013-06-05 04:12:00,59.0,49.0,29.98,East,94,0.0,2.0,70,0.00,,,0.00,,2013-06-05 09:12:00,
2013-06-05 04:22:00,58.0,49.0,29.97,East,94,0.0,1.0,71,0.00,,,0.00,,2013-06-05 09:22:00,
2013-06-05 04:32:00,58.0,49.0,29.97,East,94,0.0,0.0,72,0.00,,,0.00,,2013-06-05 09:32:00,
2013-06-05 04:42:00,58.0,49.0,29.97,East,94,0.0,0.0,72,0.00,,,0.00,,2013-06-05 09:42:00,
2013-06-05 04:53:00,58.0,49.0,29.97,East,94,0.0,2.0,73,0.00,,,0.00,,2013-06-05 09:53:00,
2013-06-05 05:03:00,58.0,50.0,29.97,East,94,0.0,1.0,74,0.00,,,0.00,,2013-06-05 10:03:00,
2013-06-05 05:12:00,58.0,50.0,29.97,East,94,0.0,1.0,74,0.00,,,0.00,,2013-06-05 10:12:00,
2013-06-05 05:22:00,58.0,50.0,29.98,East,94,0.0,1.0,74,0.00,,,0.00,,2013-06-05 10:22:00,
2013-06-05 05:33:00,58.0,50.0,29.98,East,94,0.0,1.0,74,0.00,,,0.00,,2013-06-05 10:33:00,
2013-06-05 05:42:00,58.0,50.0,29.98,East,94,0.0,1.0,74,0.00,,,0.00,,2013-06-05 10:42:00,
2013-06-05 05:52:00,58.0,50.0,29.97,East,92,1.0,4.0,74,0.00,,,0.00,,2013-06-05 10:52:00,
2013-06-05 06:02:00,58.0,50.0,29.97,East,88,0.0,4.0,74,0.00,,,0.00,,2013-06-05 11:02:00,
2013-06-05 06:12:00,58.0,50.0,29.97,East,88,0.0,4.0,74,0.00,,,0.00,,2013-06-05 11:12:00,
2013-06-05 06:22:00,58.0,50.0,29.96,East,88,0.0,1.0,76,0.00,,,0.00,,2013-06-05 11:22:00,
2013-06-05 06:32:00,58.0,50.0,29.96,East,88,0.0,3.0,76,0.00,,,0.00,,2013-06-05 11:32:00,
2013-06-05 06:42:00,58.0,50.0,29.96,East,88,0.0,3.0,76,0.00,,,0.00,,2013-06-05 11:42:00,
2013-06-05 06:52:00,58.0,50.0,29.96,East,88,0.0,3.0,75,0.00,,,0.00,,2013-06-05 11:52:00,
2013-06-05 07:02:00,58.0,50.0,29.95,ESE,121,0.0,6.0,75,0.00,,,0.00,,2013-06-05 12:02:00,
2013-06-05 07:12:00,58.0,50.0,29.95,ESE,121,0.0,6.0,75,0.00,,,0.00,,2013-06-05 12:12:00,
2013-06-05 07:22:00,59.0,51.0,29.96,SE,125,0.0,5.0,75,0.00,,,0.00,,2013-06-05 12:22:00,
2013-06-05 07:32:00,59.0,51.0,29.95,ESE,109,0.0,4.0,76,0.00,,,0.00,,2013-06-05 12:32:00,
2013-06-05 07:44:00,59.0,51.0,29.95,ESE,109,0.0,4.0,76,0.00,,,0.00,,2013-06-05 12:44:00,
2013-06-05 07:52:00,60.0,52.0,29.95,SE,130,5.0,5.0,75,0.00,,,0.00,,2013-06-05 12:52:00,
2013-06-05 08:02:00,60.0,52.0,29.95,SE,130,5.0,5.0,75,0.00,,,0.00,,2013-06-05 13:02:00,
2013-06-05 08:12:00,60.0,52.0,29.95,SE,130,5.0,5.0,75,0.00,,,0.00,,2013-06-05 13:12:00,
2013-06-05 08:22:00,60.0,52.0,29.95,ESE,115,0.0,5.0,75,0.00,,,0.00,,2013-06-05 13:22:00,
2013-06-05 08:32:00,61.0,53.0,29.95,SE,128,0.0,7.0,76,0.00,,,0.00,,2013-06-05 13:32:00,
2013-06-05 08:42:00,61.0,53.0,29.95,SE,128,0.0,7.0,76,0.00,,,0.00,,2013-06-05 13:42:00,
2013-06-05 08:52:00,62.0,54.0,29.94,ESE,108,4.0,4.0,75,0.00,,,0.00,,2013-06-05 13:52:00,
2013-06-05 09:02:00,63.0,54.0,29.94,SE,132,6.0,6.0,72,0.00,,,0.00,,2013-06-05 14:02:00,
2013-06-05 09:12:00,63.0,54.0,29.94,SE,132,6.0,6.0,72,0.00,,,0.00,,2013-06-05 14:12:00,
2013-06-05 09:22:00,63.0,54.0,29.94,SE,139,4.0,8.0,72,0.00,,,0.00,,2013-06-05 14:22:00,
2013-06-05 09:32:00,65.0,55.0,29.94,SE,140,2.0,5.0,70,0.00,,,0.00,,2013-06-05 14:32:00,
2013-06-05 09:42:00,65.0,55.0,29.94,SE,140,2.0,5.0,70,0.00,,,0.00,,2013-06-05 14:42:00,
2013-06-05 09:52:00,66.0,56.0,29.94,SE,142,1.0,5.0,69,0.00,,,0.00,,2013-06-05 14:52:00,
2013-06-05 10:02:00,67.0,56.0,29.94,SE,128,0.0,6.0,67,0.00,,,0.00,,2013-06-05 15:02:00,
2013-06-05 10:12:00,67.0,56.0,29.94,SE,128,0.0,6.0,67,0.00,,,0.00,,2013-06-05 15:12:00,
2013-06-05 10:22:00,68.0,57.0,29.94,SE,133,4.0,5.0,68,0.00,,,0.00,,2013-06-05 15:22:00,
2013-06-05 10:33:00,69.0,57.0,29.95,SE,136,0.0,4.0,65,0.00,,,0.00,,2013-06-05 15:33:00,
2013-06-05 10:42:00,69.0,56.0,29.95,SSE,165,1.0,2.0,63,0.00,,,0.00,,2013-06-05 15:42:00,
2013-06-05 10:53:00,69.0,56.0,29.95,SSE,165,1.0,2.0,63,0.00,,,0.00,,2013-06-05 15:53:00,
2013-06-05 11:03:00,68.0,60.0,29.96,SSE,166,0.0,2.0,75,0.04,,,0.04,,2013-06-05 16:03:00,
2013-06-05 11:12:00,68.0,60.0,29.96,SSE,166,0.0,2.0,75,0.04,,,0.04,,2013-06-05 16:12:00,
2013-06-05 11:22:00,66.0,60.0,29.96,SSE,166,0.0,1.0,80,0.09,,,0.09,,2013-06-05 16:22:00,
2013-06-05 11:32:00,64.0,59.0,29.95,SSE,159,0.0,2.0,84,0.09,,,0.09,,2013-06-05 16:32:00,
2013-06-05 11:42:00,63.0,59.0,29.94,East,90,0.0,4.0,87,0.10,,,0.10,,2013-06-05 16:42:00,
2013-06-05 11:54:00,63.0,59.0,29.94,East,90,0.0,4.0,87,0.10,,,0.10,,2013-06-05 16:54:00,
2013-06-05 12:02:00,63.0,59.0,29.94,East,90,0.0,4.0,87,0.10,,,0.10,,2013-06-05 17:02:00,
2013-06-05 12:12:00,63.0,59.0,29.94,East,90,0.0,4.0,87,0.10,,,0.10,,2013-06-05 17:12:00,
2013-06-05 12:22:00,63.0,59.0,29.93,ESE,121,0.0,4.0,88,0.03,,,0.10,,2013-06-05 17:22:00,
2013-06-05 12:32:00,62.0,59.0,29.92,East,86,0.0,4.0,89,0.02,,,0.11,,2013-06-05 17:32:00,
2013-06-05 12:43:00,62.0,60.0,29.92,SE,146,1.0,5.0,92,0.05,,,0.14,,2013-06-05 17:43:00,
2013-06-05 12:52:00,62.0,60.0,29.92,SE,146,1.0,5.0,92,0.05,,,0.14,,2013-06-05 17:52:00,
2013-06-05 13:02:00,62.0,60.0,29.92,SE,146,1.0,5.0,92,0.05,,,0.14,,2013-06-05 18:02:00,
2013-06-05 13:12:00,62.0,60.0,29.92,SE,146,1.0,5.0,92,0.05,,,0.14,,2013-06-05 18:12:00,
2013-06-05 13:22:00,64.0,61.0,29.92,SSE,157,0.0,4.0,91,0.04,,,0.14,,2013-06-05 18:22:00,
2013-06-05 13:32:00,64.0,61.0,29.93,SSE,157,0.0,1.0,90,0.01,,,0.14,,2013-06-05 18:32:00,
2013-06-05 13:42:00,64.0,61.0,29.93,SSE,157,0.0,1.0,90,0.01,,,0.14,,2013-06-05 18:42:00,
2013-06-05 13:52:00,64.0,61.0,29.92,SSE,157,0.0,1.0,91,0.00,,,0.14,,2013-06-05 18:52:00,
2013-06-05 14:02:00,64.0,61.0,29.92,SSE,157,0.0,1.0,91,0.00,,,0.14,,2013-06-05 19:02:00,
2013-06-05 14:12:00,64.0,61.0,29.92,SSE,157,0.0,1.0,91,0.00,,,0.14,,2013-06-05 19:12:00,
2013-06-05 14:23:00,64.0,61.0,29.91,ESE,114,0.0,4.0,91,0.00,,,0.14,,2013-06-05 19:23:00,
2013-06-05 14:32:00,64.0,61.0,29.91,SE,132,0.0,1.0,90,0.00,,,0.14,,2013-06-05 19:32:00,
2013-06-05 14:42:00,64.0,61.0,29.91,SE,132,0.0,1.0,90,0.00,,,0.14,,2013-06-05 19:42:00,
2013-06-05 14:53:00,64.0,61.0,29.91,East,95,0.0,4.0,89,0.00,,,0.14,,2013-06-05 19:53:00,
2013-06-05 15:02:00,64.0,60.0,29.91,East,94,0.0,4.0,88,0.00,,,0.14,,2013-06-05 20:02:00,
2013-06-05 15:12:00,64.0,61.0,29.91,East,94,0.0,1.0,89,0.00,,,0.14,,2013-06-05 20:12:00,
2013-06-05 15:22:00,64.0,61.0,29.91,East,94,0.0,1.0,89,0.00,,,0.14,,2013-06-05 20:22:00,
2013-06-05 15:32:00,64.0,61.0,29.90,NE,36,0.0,3.0,90,0.00,,,0.14,,2013-06-05 20:32:00,
2013-06-05 15:42:00,64.0,62.0,29.89,NE,36,0.0,2.0,92,0.00,,,0.14,,2013-06-05 20:42:00,
2013-06-05 15:52:00,64.0,62.0,29.89,NE,36,0.0,2.0,92,0.00,,,0.14,,2013-06-05 20:52:00,
2013-06-05 16:02:00,64.0,62.0,29.90,NNE,24,0.0,4.0,92,0.00,,,0.14,,2013-06-05 21:02:00,
2013-06-05 16:12:00,63.0,61.0,29.89,NNE,24,0.0,2.0,92,0.00,,,0.14,,2013-06-05 21:12:00,
2013-06-05 16:33:00,63.0,61.0,29.88,NNE,24,0.0,3.0,93,0.00,,,0.14,,2013-06-05 21:33:00,
2013-06-05 16:43:00,62.0,60.0,29.88,NNE,24,0.0,3.0,93,0.00,,,0.14,,2013-06-05 21:43:00,
2013-06-05 16:53:00,62.0,60.0,29.88,NNE,24,0.0,3.0,93,0.00,,,0.14,,2013-06-05 21:53:00,
2013-06-05 17:02:00,62.0,60.0,29.87,NNE,24,0.0,3.0,94,0.01,,,0.15,,2013-06-05 22:02:00,
2013-06-05 17:12:00,62.0,60.0,29.87,NNE,24,0.0,3.0,94,0.01,,,0.15,,2013-06-05 22:12:00,
2013-06-05 17:22:00,62.0,60.0,29.87,NNE,24,0.0,3.0,94,0.01,,,0.15,,2013-06-05 22:22:00,
2013-06-05 17:32:00,62.0,61.0,29.87,NNE,12,1.0,4.0,95,0.02,,,0.16,,2013-06-05 22:32:00,
2013-06-05 17:42:00,62.0,60.0,29.86,NNE,15,1.0,5.0,94,0.02,,,0.16,,2013-06-05 22:42:00,
2013-06-05 17:53:00,62.0,60.0,29.86,NNE,15,1.0,5.0,94,0.02,,,0.16,,2013-06-05 22:53:00,
2013-06-05 18:02:00,62.0,60.0,29.87,NNE,33,1.0,5.0,94,0.02,,,0.16,,2013-06-05 23:02:00,
2013-06-05 18:12:00,62.0,60.0,29.86,NNE,28,0.0,3.0,94,0.00,,,0.16,,2013-06-05 23:12:00,
2013-06-05 18:22:00,62.0,60.0,29.86,NNE,28,0.0,3.0,94,0.00,,,0.16,,2013-06-05 23:22:00,
2013-06-05 18:32:00,62.0,60.0,29.86,NNE,29,2.0,4.0,93,0.00,,,0.16,,2013-06-05 23:32:00,
2013-06-05 18:42:00,62.0,60.0,29.86,NNE,29,2.0,4.0,93,0.00,,,0.16,,2013-06-05 23:42:00,
2013-06-05 18:53:00,62.0,60.0,29.85,East,91,5.0,5.0,93,0.00,,,0.16,,2013-06-05 23:53:00,
2013-06-05 19:02:00,62.0,60.0,29.85,NE,37,0.0,7.0,93,0.00,,,0.16,,2013-06-06 00:02:00,
2013-06-05 19:12:00,62.0,60.0,29.85,NE,37,0.0,7.0,93,0.00,,,0.16,,2013-06-06 00:12:00,
2013-06-05 19:22:00,62.0,60.0,29.86,NE,44,3.0,4.0,93,0.00,,,0.16,,2013-06-06 00:22:00,
2013-06-05 19:32:00,62.0,60.0,29.86,NE,44,3.0,4.0,93,0.00,,,0.16,,2013-06-06 00:32:00,
2013-06-05 19:42:00,62.0,60.0,29.86,NE,44,3.0,4.0,93,0.00,,,0.16,,2013-06-06 00:42:00,
2013-06-05 19:52:00,61.0,59.0,29.86,NNE,15,3.0,5.0,93,0.00,,,0.16,,2013-06-06 00:52:00,
2013-06-05 20:02:00,61.0,59.0,29.86,NE,34,1.0,4.0,92,0.00,,,0.16,,2013-06-06 01:02:00,
2013-06-05 20:12:00,61.0,59.0,29.86,NE,34,1.0,4.0,92,0.00,,,0.16,,2013-06-06 01:12:00,
2013-06-05 20:22:00,61.0,59.0,29.87,North,9,0.0,5.0,92,0.00,,,0.16,,2013-06-06 01:22:00,
2013-06-05 20:32:00,61.0,59.0,29.87,NE,55,0.0,3.0,93,0.00,,,0.16,,2013-06-06 01:32:00,
2013-06-05 20:42:00,61.0,59.0,29.87,NE,55,0.0,3.0,93,0.00,,,0.16,,2013-06-06 01:42:00,
2013-06-05 20:53:00,61.0,59.0,29.88,NNE,17,2.0,6.0,93,0.00,,,0.16,,2013-06-06 01:53:00,
2013-06-05 21:02:00,61.0,59.0,29.89,NNE,24,0.0,3.0,94,0.00,,,0.16,,2013-06-06 02:02:00,
2013-06-05 21:12:00,61.0,59.0,29.89,NNE,24,0.0,3.0,94,0.00,,,0.16,,2013-06-06 02:12:00,
2013-06-05 21:22:00,60.0,58.0,29.87,East,79,1.0,4.0,93,0.06,,,0.22,,2013-06-06 02:22:00,
2013-06-05 21:32:00,59.0,57.0,29.87,East,81,4.0,6.0,93,0.06,,,0.22,,2013-06-06 02:32:00,
2013-06-05 21:42:00,59.0,57.0,29.87,East,81,4.0,6.0,93,0.06,,,0.22,,2013-06-06 02:42:00,
2013-06-05 21:52:00,59.0,57.0,29.87,East,81,4.0,6.0,93,0.06,,,0.22,,2013-06-06 02:52:00,
2013-06-05 22:02:00,58.0,56.0,29.88,NE,48,0.0,6.0,94,0.12,,,0.28,,2013-06-06 03:02:00,
2013-06-05 22:12:00,58.0,56.0,29.88,NE,48,0.0,6.0,94,0.12,,,0.28,,2013-06-06 03:12:00,
2013-06-05 22:22:00,57.0,55.0,29.88,East,84,0.0,3.0,94,0.08,,,0.28,,2013-06-06 03:22:00,
2013-06-05 22:33:00,57.0,56.0,29.89,NE,34,0.0,1.0,95,0.05,,,0.28,,2013-06-06 03:33:00,
2013-06-05 22:43:00,57.0,56.0,29.89,NE,34,0.0,1.0,95,0.05,,,0.28,,2013-06-06 03:43:00,
2013-06-05 22:52:00,57.0,56.0,29.89,NE,34,0.0,1.0,95,0.03,,,0.28,,2013-06-06 03:52:00,
2013-06-05 23:03:00,57.0,56.0,29.88,NE,34,0.0,2.0,95,0.00,,,0.28,,2013-06-06 04:03:00,
2013-06-05 23:13:00,57.0,56.0,29.88,NE,34,0.0,2.0,95,0.00,,,0.28,,2013-06-06 04:13:00,
2013-06-05 23:23:00,57.0,55.0,29.88,East,84,0.0,3.0,94,0.00,,,0.28,,2013-06-06 04:23:00,
2013-06-05 23:33:00,56.0,54.0,29.88,East,93,0.0,1.0,94,0.02,,,0.30,,2013-06-06 04:33:00,
2013-06-05 23:42:00,56.0,54.0,29.88,East,93,0.0,0.0,94,0.04,,,0.32,,2013-06-06 04:42:00,
2013-06-05 23:53:00,56.0,54.0,29.88,East,93,0.0,0.0,94,0.04,,,0.32,,2013-06-06 04:53:00,